Location: Windsor
(43.2292°N, 89.3015°W)
Time: 10:29:59
(UTC+00:00)

BEESAT - Pass Details

Date: 02 July 2022
Orbit: 700 x 706 km, 98.6° (Epoch: 13 August)

Event Time Altitude Azimuth Distance (km) Brightness Sun altitude
Rises 02:50:18 0° 8° (N) 3,104 ? -10.5°
Reaches altitude 10° 02:52:36 10° 4° (N) 2,182 ? -10.8°
Maximum altitude 02:57:15 53° 289° (WNW) 867 ? -11.4°
Drops below altitude 10° 03:01:52 10° 213° (SSW) 2,170 ? -12.0°
Sets 03:04:09 0° 208° (SSW) 3,085 ? -12.2°
